User: anonymous   Login
Location: Unspecified
(0.0000°N, 0.0000°E)
Time: 15:01:43
(UTC+00:00)
Language:

PAKSAT 1R - Orbit

View from above orbital plane
View from above orbital plane
View from above satellite
View from above satellite

Ground track
Ground track

The orbit data is extracted from the following two-line orbital elements,

1 37779U 11042A   17018.14044580  .00000145  00000-0  00000+0 0  9993
2 37779   0.0326 163.9612 0003731 139.4436 262.8701  1.00273597 19817
Epoch (UTC): 18 January 2017 03:22:14
Eccentricity: 0.0003731
inclination: 0.0326°
perigee height: 35770 km
apogee height: 35801 km
right ascension of ascending node: 163.9612°
argument of perigee: 139.4436°
revolutions per day: 1.00273597
mean anomaly at epoch: 262.8701°
orbit number at epoch: 1981

The dashed part of the orbit path shows where the satellite is in the earth's shadow,  

DLR